Dubrovnik, Croatia

1:27 AM CET on December 14, 2017 (GMT +0100)
Cilipi

Weather History for LDDU - December, 2017

Change the Weather History Date:

Sunday, December 10, 2017

  Actual Average (LYTV) Record (LYTV)
Temperature  
Mean Temperature 42 °F -  
Max Temperature 50 °F 55 °F 64 °F (1999)
Min Temperature 35 °F 38 °F 24 °F (1998)
Degree Days  
Heating Degree Days 22    
Moisture  
Dew Point 25 °F    
Average Humidity 49    
Maximum Humidity 65    
Minimum Humidity 21    
Precipitation  
Precipitation 0.00 in - - ()
Sea Level Pressure  
Sea Level Pressure 30.03 in    
Wind  
Wind Speed 16 mph ()    
Max Wind Speed 27 mph    
Max Gust Speed -    
Visibility 7.6 miles    
Events      
Averages and records for this station are not official NWS values.
T = Trace of Precipitation, MM = Missing Value Source: Averaged Metar Reports

Daily Weather History Graph

Daily Weather History Graph

Search for Another Location

Airport or City:

Trip Planner

Search our weather history database for the weather conditions in past years. The results will help you decide how hot, cold, wet, or windy it might be!

Date:

Astronomy

Dec. 10, 2017 Rise Set
Actual Time 7:05 AM CET 4:13 PM CET
Civil Twilight 6:33 AM CET 4:45 PM CET
Nautical Twilight 5:58 AM CET 5:20 PM CET
Astronomical Twilight 5:24 AM CET 5:55 PM CET
Moon No Moon Rise 12:21 PM CET (12/10)
Length of Visible Light 10h 11m
Length of Day
9h 07m
Waning Gibbous, 49% of the Moon is Illuminated
Dec 10
Waning Gibbous
Dec 18
New
Dec 26
First Quarter
Jan 2
Full
Jan 8
Last Quarter

Hourly Weather History & Observations

Time (CET) Temp. Windchill Dew Point Humidity Pressure Visibility Wind Dir Wind Speed Gust Speed Precip Events Conditions
12:00 AM 39.2 °F 28.3 °F 28.4 °F 65% 29.86 in 6.2 mi NNE 25.3 mph - N/A   Partly Cloudy
12:30 AM 39.2 °F 28.7 °F 26.6 °F 61% 29.89 in 6.2 mi NNE 23.0 mph - N/A   Partly Cloudy
1:00 AM 39 °F - 26 °F 48% 29.92 in 12 mi NNE 26.8 mph - -  
1:00 AM 39.2 °F 28.3 °F 26.6 °F 61% 29.89 in 6.2 mi NNE 25.3 mph - N/A   Partly Cloudy
1:11 AM 39 °F - 26 °F 46% 29.92 in 22 mi NNE 24.6 mph - -   Partly Cloudy
1:30 AM 39.2 °F 28.5 °F 24.8 °F 56% 29.89 in - NNE 24.2 mph - N/A   Clear
2:00 AM 39.2 °F 28.7 °F 24.8 °F 56% 29.92 in - NNE 23.0 mph - N/A   Clear
2:30 AM 39.2 °F 28.7 °F 23.0 °F 52% 29.92 in - NNE 23.0 mph - N/A   Clear
3:00 AM 39.2 °F 28.5 °F 23.0 °F 52% 29.92 in - NNE 24.2 mph - N/A   Clear
3:30 AM 37.4 °F 26.1 °F 23.0 °F 56% 29.95 in - NNE 24.2 mph - N/A   Clear
4:00 AM 37 °F - 22 °F 41% 29.99 in 22 mi NNE 22.4 mph - -  
4:00 AM 37.4 °F 26.6 °F 21.2 °F 52% 29.95 in - NNE 21.9 mph - N/A   Clear
4:30 AM 37.4 °F 27.2 °F 21.2 °F 52% 29.98 in - NNE 19.6 mph - N/A   Clear
5:00 AM 37.4 °F 26.4 °F 21.2 °F 52% 29.98 in - NNE 23.0 mph - N/A   Clear
5:30 AM 37.4 °F 27.2 °F 19.4 °F 48% 30.01 in - NNE 19.6 mph - N/A   Clear
6:00 AM 37.4 °F 26.9 °F 19.4 °F 48% 30.01 in - NNE 20.7 mph - N/A   Clear
6:30 AM 37.4 °F 26.9 °F 19.4 °F 48% 30.01 in - NNE 20.7 mph - N/A   Clear
7:00 AM 35.6 °F 24.8 °F 19.4 °F 52% 30.04 in - NNE 19.6 mph - N/A   Clear
7:30 AM 35.6 °F 24.5 °F 19.4 °F 52% 30.04 in - NNE 20.7 mph - N/A   Clear
8:00 AM 37.4 °F 28.5 °F 19.4 °F 48% 30.04 in - NNE 15.0 mph - N/A   Clear
8:30 AM 39.2 °F 35.0 °F 19.4 °F 45% 30.06 in - NE 5.8 mph - N/A   Clear
9:00 AM 41.0 °F 37.1 °F 19.4 °F 42% 30.06 in - ENE 5.8 mph - N/A   Clear
9:30 AM 42.8 °F 40.1 °F 19.4 °F 39% 30.06 in - NE 4.6 mph - N/A   Clear
10:00 AM 46 °F - 19 °F 21% 30.12 in 31 mi NE 2.2 mph - -   Clear
10:00 AM 44.6 °F - 17.6 °F 34% 30.09 in - Variable 2.3 mph - N/A   Clear
10:30 AM 46.4 °F 45.2 °F 19.4 °F 34% 30.09 in - Variable 3.5 mph - N/A   Clear
11:00 AM 44.6 °F 41.4 °F 19.4 °F 37% 30.09 in - West 5.8 mph - N/A   Clear
11:30 AM 44.6 °F 40.2 °F 21.2 °F 39% 30.09 in - WNW 8.1 mph - N/A   Clear
12:00 PM 46.4 °F 44.3 °F 21.2 °F 37% 30.09 in - Variable 4.6 mph - N/A   Clear
12:30 PM 46.4 °F 44.3 °F 23.0 °F 40% 30.09 in - Variable 4.6 mph - N/A   Clear
1:00 PM 46 °F - 22 °F 25% 30.10 in 31 mi SSW 4.5 mph - -  
1:00 PM 46.4 °F 43.5 °F 23.0 °F 40% 30.06 in - SSE 5.8 mph - N/A   Clear
1:30 PM 46.4 °F 42.9 °F 24.8 °F 43% 30.06 in - South 6.9 mph - N/A   Clear
2:00 PM 46.4 °F 42.9 °F 23.0 °F 40% 30.06 in - SSE 6.9 mph - N/A   Clear
2:30 PM 46.4 °F 42.4 °F 26.6 °F 46% 30.06 in - SE 8.1 mph - N/A   Clear
3:00 PM 44.6 °F 39.7 °F 26.6 °F 49% 30.06 in - SSE 9.2 mph - N/A   Clear
3:30 PM 44.6 °F 39.7 °F 28.4 °F 53% 30.06 in 6.2 mi SE 9.2 mph - N/A   Scattered Clouds
4:00 PM 43 °F - 27 °F 41% 30.09 in 25 mi East 8.9 mph - -   Partly Cloudy
4:00 PM 42.8 °F 38.0 °F 26.6 °F 53% 30.06 in 6.2 mi East 8.1 mph - N/A   Scattered Clouds
4:30 PM 41.0 °F 34.7 °F 26.6 °F 57% 30.06 in 6.2 mi East 10.4 mph - N/A   Scattered Clouds
5:00 PM 39.2 °F 32.5 °F 26.6 °F 61% 30.06 in 6.2 mi East 10.4 mph - N/A   Partly Cloudy
5:30 PM 41.0 °F 34.7 °F 28.4 °F 61% 30.04 in 6.2 mi East 10.4 mph - N/A   Partly Cloudy
6:00 PM 41.0 °F 34.7 °F 28.4 °F 61% 30.04 in 6.2 mi East 10.4 mph - N/A   Scattered Clouds
6:30 PM 41.0 °F 34.7 °F 28.4 °F 61% 30.06 in 6.2 mi East 10.4 mph - N/A   Scattered Clouds
7:00 PM 43 °F - 29 °F 45% 30.08 in 19 mi East 13.4 mph - -   Partly Cloudy
7:00 PM 42.8 °F 35.8 °F 28.4 °F 57% 30.06 in 6.2 mi East 13.8 mph - N/A   Scattered Clouds
7:30 PM 41.0 °F 34.7 °F 28.4 °F 61% 30.06 in 6.2 mi East 10.4 mph - N/A   Scattered Clouds
8:00 PM 42.8 °F 36.6 °F 28.4 °F 57% 30.06 in 6.2 mi East 11.5 mph - N/A   Mostly Cloudy
8:30 PM 42.8 °F 36.6 °F 30.2 °F 61% 30.06 in 6.2 mi ESE 11.5 mph - N/A   Mostly Cloudy
9:00 PM 44.6 °F 38.8 °F 30.2 °F 57% 30.06 in 6.2 mi ESE 11.5 mph - N/A   Mostly Cloudy
9:30 PM 44.6 °F 37.8 °F 30.2 °F 57% 30.06 in 6.2 mi ESE 15.0 mph - N/A   Mostly Cloudy
10:00 PM 46 °F - 31 °F 43% 30.08 in 19 mi ESE 17.9 mph - -   Mostly Cloudy
10:00 PM 46.4 °F 39.2 °F 30.2 °F 53% 30.06 in 6.2 mi ESE 18.4 mph - N/A   Mostly Cloudy
10:30 PM 46.4 °F 39.5 °F 32.0 °F 57% 30.06 in 6.2 mi ESE 17.3 mph - N/A   Mostly Cloudy
11:00 PM 50.0 °F - 33.8 °F 54% 30.06 in 6.2 mi SE 13.8 mph - N/A   Mostly Cloudy
11:30 PM 50.0 °F - 33.8 °F 54% 30.06 in 6.2 mi SE 16.1 mph - N/A   Mostly Cloudy